contact:dominique.lefevre@mio.osupytheas.fr, maurice.libes@osupytheas.fr, didier.mallarino@osupytheas.fr
Project:EMSO http://www.emso-fr.org/EMSO-France
Depth: 2436.0 m
Title:EMSO Ligure Ouest : Data MII capteur MICROCAT
DateTime_Computer,Latitude,Longitude,Temperature,Conductivity,Pressure,DateTime_Instrument
DateTime_Computer,Latitude,Longitude,degC,S m-1,dbar,DateTime_Instrument
2022-10-21T00:01:37Z,42.805,6.029,13.3013,4.60055,2470.614,2022-10-21T02:03:33Z
2022-10-21T00:04:40Z,42.805,6.029,13.3012,4.60053,2470.577,2022-10-21T02:06:36Z
2022-10-21T00:07:43Z,42.805,6.029,13.3011,4.60054,2470.553,2022-10-21T02:09:39Z
2022-10-21T00:10:46Z,42.805,6.029,13.3010,4.60053,2470.6,2022-10-21T02:12:42Z
2022-10-21T00:13:50Z,42.805,6.029,13.3013,4.60053,2470.6,2022-10-21T02:15:45Z
2022-10-21T00:16:53Z,42.805,6.029,13.3010,4.60054,2470.661,2022-10-21T02:18:48Z
2022-10-21T00:19:56Z,42.805,6.029,13.3010,4.60054,2470.6,2022-10-21T02:21:51Z
2022-10-21T00:22:59Z,42.805,6.029,13.3011,4.60054,2470.6,2022-10-21T02:24:54Z
2022-10-21T00:26:02Z,42.805,6.029,13.3011,4.60054,2470.577,2022-10-21T02:27:58Z
2022-10-21T00:29:05Z,42.805,6.029,13.3012,4.60053,2470.624,2022-10-21T02:31:01Z
2022-10-21T00:32:08Z,42.805,6.029,13.3011,4.60054,2470.577,2022-10-21T02:34:04Z
2022-10-21T00:35:11Z,42.805,6.029,13.3013,4.60054,2470.624,2022-10-21T02:37:07Z
2022-10-21T00:38:14Z,42.805,6.029,13.3011,4.60055,2470.577,2022-10-21T02:40:10Z
2022-10-21T00:41:17Z,42.805,6.029,13.3015,4.60052,2470.577,2022-10-21T02:43:13Z
2022-10-21T00:44:20Z,42.805,6.029,13.3013,4.60053,2470.567,2022-10-21T02:46:16Z
2022-10-21T00:47:23Z,42.805,6.029,13.3011,4.60054,2470.624,2022-10-21T02:49:19Z
2022-10-21T00:50:26Z,42.805,6.029,13.3011,4.60055,2470.6,2022-10-21T02:52:22Z
2022-10-21T00:53:30Z,42.805,6.029,13.3011,4.60054,2470.6,2022-10-21T02:55:25Z
2022-10-21T00:56:33Z,42.805,6.029,13.3012,4.60054,2470.614,2022-10-21T02:58:28Z
2022-10-21T00:59:36Z,42.805,6.029,13.3011,4.60054,2470.6,2022-10-21T03:01:31Z
2022-10-21T01:02:39Z,42.805,6.029,13.3011,4.60057,2470.6,2022-10-21T03:04:35Z
2022-10-21T01:05:42Z,42.805,6.029,13.3014,4.60054,2470.637,2022-10-21T03:07:38Z
2022-10-21T01:08:45Z,42.805,6.029,13.3011,4.60058,2470.6,2022-10-21T03:10:41Z
2022-10-21T01:11:48Z,42.805,6.029,13.3014,4.60054,2470.624,2022-10-21T03:13:44Z
2022-10-21T01:14:51Z,42.805,6.029,13.3011,4.60053,2470.637,2022-10-21T03:16:47Z
2022-10-21T01:17:54Z,42.805,6.029,13.3012,4.60054,2470.624,2022-10-21T03:19:50Z
2022-10-21T01:20:57Z,42.805,6.029,13.3011,4.60054,2470.6,2022-10-21T03:22:53Z
2022-10-21T01:24:00Z,42.805,6.029,13.3011,4.60055,2470.577,2022-10-21T03:25:56Z
2022-10-21T01:27:03Z,42.805,6.029,13.3011,4.60053,2470.6,2022-10-21T03:28:59Z
2022-10-21T01:30:06Z,42.805,6.029,13.3012,4.60054,2470.6,2022-10-21T03:32:02Z
2022-10-21T01:33:10Z,42.805,6.029,13.3010,4.60057,2470.624,2022-10-21T03:35:05Z
2022-10-21T01:36:13Z,42.805,6.029,13.3012,4.60061,2470.637,2022-10-21T03:38:08Z
2022-10-21T01:39:16Z,42.805,6.029,13.3009,4.60062,2470.6,2022-10-21T03:41:11Z
2022-10-21T01:42:19Z,42.805,6.029,13.3011,4.60054,2470.6,2022-10-21T03:44:14Z
2022-10-21T01:45:22Z,42.805,6.029,13.3013,4.60056,2470.577,2022-10-21T03:47:18Z
2022-10-21T01:48:25Z,42.805,6.029,13.3011,4.60054,2470.637,2022-10-21T03:50:21Z
2022-10-21T01:51:28Z,42.805,6.029,13.3010,4.60054,2470.637,2022-10-21T03:53:24Z
2022-10-21T01:54:31Z,42.805,6.029,13.3014,4.60056,2470.637,2022-10-21T03:56:27Z
2022-10-21T01:57:34Z,42.805,6.029,13.3009,4.60055,2470.624,2022-10-21T03:59:30Z
2022-10-21T02:00:37Z,42.805,6.029,13.3012,4.60059,2470.646,2022-10-21T04:02:33Z
2022-10-21T02:03:40Z,42.805,6.029,13.3013,4.60054,2470.646,2022-10-21T04:05:36Z
2022-10-21T02:06:43Z,42.805,6.029,13.3011,4.60054,2470.61,2022-10-21T04:08:39Z
2022-10-21T02:09:46Z,42.805,6.029,13.3011,4.60055,2470.614,2022-10-21T04:11:42Z
2022-10-21T02:12:50Z,42.805,6.029,13.3014,4.60054,2470.624,2022-10-21T04:14:45Z
2022-10-21T02:15:53Z,42.805,6.029,13.3012,4.60054,2470.661,2022-10-21T04:17:48Z
2022-10-21T02:18:56Z,42.805,6.029,13.3011,4.60057,2470.646,2022-10-21T04:20:51Z
2022-10-21T02:21:59Z,42.805,6.029,13.3012,4.60054,2470.661,2022-10-21T04:23:54Z
2022-10-21T02:25:02Z,42.805,6.029,13.3012,4.60055,2470.637,2022-10-21T04:26:58Z
2022-10-21T02:28:05Z,42.805,6.029,13.3012,4.60054,2470.624,2022-10-21T04:30:01Z
2022-10-21T02:31:08Z,42.805,6.029,13.3010,4.60054,2470.646,2022-10-21T04:33:04Z
2022-10-21T02:34:11Z,42.805,6.029,13.3012,4.60054,2470.6,2022-10-21T04:36:07Z
2022-10-21T02:37:14Z,42.805,6.029,13.3011,4.60056,2470.646,2022-10-21T04:39:10Z
2022-10-21T02:40:17Z,42.805,6.029,13.3014,4.60054,2470.624,2022-10-21T04:42:13Z
2022-10-21T02:43:20Z,42.805,6.029,13.3011,4.60054,2470.624,2022-10-21T04:45:16Z
2022-10-21T02:46:23Z,42.805,6.029,13.3013,4.60055,2470.624,2022-10-21T04:48:19Z
2022-10-21T02:49:26Z,42.805,6.029,13.3011,4.60054,2470.646,2022-10-21T04:51:22Z
2022-10-21T02:52:30Z,42.805,6.029,13.3014,4.60054,2470.646,2022-10-21T04:54:25Z
2022-10-21T02:55:33Z,42.805,6.029,13.3011,4.60054,2470.646,2022-10-21T04:57:28Z
2022-10-21T02:58:36Z,42.805,6.029,13.3012,4.60055,2470.646,2022-10-21T05:00:31Z
2022-10-21T03:01:39Z,42.805,6.029,13.3014,4.60054,2470.684,2022-10-21T05:03:35Z
2022-10-21T03:04:42Z,42.805,6.029,13.3015,4.60055,2470.646,2022-10-21T05:06:38Z
2022-10-21T03:07:45Z,42.805,6.029,13.3011,4.60055,2470.67,2022-10-21T05:09:41Z
2022-10-21T03:10:48Z,42.805,6.029,13.3014,4.60055,2470.684,2022-10-21T05:12:44Z
2022-10-21T03:13:51Z,42.805,6.029,13.3009,4.60055,2470.67,2022-10-21T05:15:47Z
2022-10-21T03:16:54Z,42.805,6.029,13.3009,4.60062,2470.661,2022-10-21T05:18:50Z
2022-10-21T03:19:57Z,42.805,6.029,13.3010,4.60054,2470.624,2022-10-21T05:21:53Z
2022-10-21T03:23:00Z,42.805,6.029,13.3011,4.60055,2470.661,2022-10-21T05:24:56Z
2022-10-21T03:26:03Z,42.805,6.029,13.3011,4.60056,2470.67,2022-10-21T05:27:59Z
2022-10-21T03:29:06Z,42.805,6.029,13.3012,4.60057,2470.67,2022-10-21T05:31:02Z
2022-10-21T03:32:10Z,42.805,6.029,13.3013,4.60055,2470.67,2022-10-21T05:34:05Z
2022-10-21T03:35:13Z,42.805,6.029,13.3014,4.60054,2470.67,2022-10-21T05:37:08Z
2022-10-21T03:38:16Z,42.805,6.029,13.3011,4.60056,2470.67,2022-10-21T05:40:11Z
2022-10-21T03:41:19Z,42.805,6.029,13.3015,4.60057,2470.707,2022-10-21T05:43:15Z
2022-10-21T03:44:22Z,42.805,6.029,13.3009,4.60055,2470.684,2022-10-21T05:46:18Z
2022-10-21T03:47:25Z,42.805,6.029,13.3009,4.60057,2470.684,2022-10-21T05:49:21Z
2022-10-21T03:50:28Z,42.805,6.029,13.3015,4.60055,2470.693,2022-10-21T05:52:24Z
2022-10-21T03:53:31Z,42.805,6.029,13.3013,4.60054,2470.693,2022-10-21T05:55:27Z
2022-10-21T03:56:34Z,42.805,6.029,13.3013,4.60054,2470.684,2022-10-21T05:58:30Z
2022-10-21T03:59:37Z,42.805,6.029,13.3009,4.60056,2470.707,2022-10-21T06:01:33Z
2022-10-21T04:02:40Z,42.805,6.029,13.3013,4.60056,2470.646,2022-10-21T06:04:36Z
2022-10-21T04:05:43Z,42.805,6.029,13.3014,4.60054,2470.67,2022-10-21T06:07:39Z
2022-10-21T04:08:47Z,42.805,6.029,13.3011,4.60057,2470.684,2022-10-21T06:10:42Z
2022-10-21T04:11:50Z,42.805,6.029,13.3009,4.60054,2470.67,2022-10-21T06:13:45Z
2022-10-21T04:14:53Z,42.805,6.029,13.3008,4.60054,2470.693,2022-10-21T06:16:48Z
2022-10-21T04:17:56Z,42.805,6.029,13.3015,4.60054,2470.67,2022-10-21T06:19:51Z
2022-10-21T04:20:59Z,42.805,6.029,13.3011,4.60054,2470.684,2022-10-21T06:22:55Z
2022-10-21T04:24:02Z,42.805,6.029,13.3014,4.60054,2470.67,2022-10-21T06:25:58Z
2022-10-21T04:27:05Z,42.805,6.029,13.3012,4.60053,2470.67,2022-10-21T06:29:01Z
2022-10-21T04:30:08Z,42.805,6.029,13.3009,4.60057,2470.67,2022-10-21T06:32:04Z
2022-10-21T04:33:11Z,42.805,6.029,13.3012,4.60056,2470.67,2022-10-21T06:35:07Z
2022-10-21T04:36:14Z,42.805,6.029,13.3013,4.60053,2470.67,2022-10-21T06:38:10Z
2022-10-21T04:39:17Z,42.805,6.029,13.3012,4.60056,2470.693,2022-10-21T06:41:13Z
2022-10-21T04:42:20Z,42.805,6.029,13.3009,4.60053,2470.693,2022-10-21T06:44:16Z
2022-10-21T04:45:23Z,42.805,6.029,13.3011,4.60057,2470.646,2022-10-21T06:47:19Z
2022-10-21T04:48:27Z,42.805,6.029,13.3015,4.60054,2470.693,2022-10-21T06:50:22Z
2022-10-21T04:51:30Z,42.805,6.029,13.3008,4.60054,2470.67,2022-10-21T06:53:25Z
2022-10-21T04:54:33Z,42.805,6.029,13.3013,4.60055,2470.684,2022-10-21T06:56:28Z
2022-10-21T04:57:36Z,42.805,6.029,13.3015,4.60054,2470.67,2022-10-21T06:59:32Z
2022-10-21T05:00:39Z,42.805,6.029,13.3014,4.60054,2470.707,2022-10-21T07:02:35Z
2022-10-21T05:03:42Z,42.805,6.029,13.3014,4.60061,2470.67,2022-10-21T07:05:38Z
2022-10-21T05:06:45Z,42.805,6.029,13.3008,4.60057,2470.67,2022-10-21T07:08:41Z
2022-10-21T05:09:48Z,42.805,6.029,13.3014,4.60054,2470.67,2022-10-21T07:11:44Z
2022-10-21T05:12:51Z,42.805,6.029,13.3010,4.60054,2470.707,2022-10-21T07:14:47Z
2022-10-21T05:15:54Z,42.805,6.029,13.3015,4.60062,2470.684,2022-10-21T07:17:50Z
2022-10-21T05:18:57Z,42.805,6.029,13.3010,4.60062,2470.684,2022-10-21T07:20:53Z
2022-10-21T05:22:00Z,42.805,6.029,13.3013,4.60054,2470.693,2022-10-21T07:23:56Z
2022-10-21T05:25:03Z,42.805,6.029,13.3009,4.60054,2470.684,2022-10-21T07:26:59Z
2022-10-21T05:28:07Z,42.805,6.029,13.3012,4.60053,2470.67,2022-10-21T07:30:02Z
2022-10-21T05:31:10Z,42.805,6.029,13.3011,4.60054,2470.684,2022-10-21T07:33:05Z
2022-10-21T05:34:13Z,42.805,6.029,13.3010,4.60057,2470.684,2022-10-21T07:36:08Z
2022-10-21T05:37:16Z,42.805,6.029,13.3011,4.60053,2470.684,2022-10-21T07:39:12Z
2022-10-21T05:40:19Z,42.805,6.029,13.3010,4.60053,2470.67,2022-10-21T07:42:15Z
2022-10-21T05:43:22Z,42.805,6.029,13.3007,4.60061,2470.661,2022-10-21T07:45:18Z
2022-10-21T05:46:25Z,42.805,6.029,13.3009,4.60057,2470.67,2022-10-21T07:48:21Z
2022-10-21T05:49:28Z,42.805,6.029,13.3016,4.60054,2470.684,2022-10-21T07:51:24Z
2022-10-21T05:52:31Z,42.805,6.029,13.3011,4.60053,2470.67,2022-10-21T07:54:27Z
2022-10-21T05:55:34Z,42.805,6.029,13.3014,4.60053,2470.707,2022-10-21T07:57:30Z
2022-10-21T05:58:37Z,42.805,6.029,13.3011,4.60056,2470.67,2022-10-21T08:00:33Z
2022-10-21T06:01:40Z,42.805,6.029,13.3009,4.60054,2470.646,2022-10-21T08:03:36Z
2022-10-21T06:04:43Z,42.805,6.029,13.3012,4.60054,2470.67,2022-10-21T08:06:39Z
2022-10-21T06:07:47Z,42.805,6.029,13.3009,4.60052,2470.67,2022-10-21T08:09:42Z
2022-10-21T06:10:50Z,42.805,6.029,13.3009,4.60057,2470.646,2022-10-21T08:12:45Z
2022-10-21T06:13:53Z,42.805,6.029,13.3009,4.60054,2470.707,2022-10-21T08:15:48Z
2022-10-21T06:16:56Z,42.805,6.029,13.3009,4.60054,2470.684,2022-10-21T08:18:52Z
2022-10-21T06:19:59Z,42.805,6.029,13.3010,4.60062,2470.684,2022-10-21T08:21:55Z
2022-10-21T06:23:02Z,42.805,6.029,13.3008,4.60054,2470.684,2022-10-21T08:24:58Z
2022-10-21T06:26:05Z,42.805,6.029,13.3009,4.60054,2470.707,2022-10-21T08:28:01Z
2022-10-21T06:29:08Z,42.805,6.029,13.3011,4.60053,2470.646,2022-10-21T08:31:04Z
2022-10-21T06:32:11Z,42.805,6.029,13.3014,4.60054,2470.67,2022-10-21T08:34:07Z
2022-10-21T06:35:14Z,42.805,6.029,13.3010,4.60054,2470.684,2022-10-21T08:37:10Z
2022-10-21T06:38:17Z,42.805,6.029,13.3011,4.60054,2470.646,2022-10-21T08:40:13Z
2022-10-21T06:41:20Z,42.805,6.029,13.3009,4.60054,2470.646,2022-10-21T08:43:16Z
2022-10-21T06:44:24Z,42.805,6.029,13.3011,4.60055,2470.67,2022-10-21T08:46:19Z
2022-10-21T06:47:27Z,42.805,6.029,13.3013,4.60053,2470.646,2022-10-21T08:49:22Z
2022-10-21T06:50:30Z,42.805,6.029,13.3014,4.60054,2470.661,2022-10-21T08:52:25Z
2022-10-21T06:53:33Z,42.805,6.029,13.3013,4.60055,2470.624,2022-10-21T08:55:28Z
2022-10-21T06:56:36Z,42.805,6.029,13.3014,4.60055,2470.67,2022-10-21T08:58:32Z
2022-10-21T06:59:39Z,42.805,6.029,13.3014,4.60054,2470.67,2022-10-21T09:01:35Z
2022-10-21T07:02:42Z,42.805,6.029,13.3009,4.60054,2470.646,2022-10-21T09:04:38Z
2022-10-21T07:05:45Z,42.805,6.029,13.3012,4.60056,2470.624,2022-10-21T09:07:41Z
2022-10-21T07:08:48Z,42.805,6.029,13.3011,4.60057,2470.684,2022-10-21T09:10:44Z
2022-10-21T07:11:51Z,42.805,6.029,13.3012,4.60056,2470.646,2022-10-21T09:13:47Z
2022-10-21T07:14:54Z,42.805,6.029,13.3011,4.60053,2470.661,2022-10-21T09:16:50Z
2022-10-21T07:17:57Z,42.805,6.029,13.3011,4.60054,2470.661,2022-10-21T09:19:53Z
2022-10-21T07:21:00Z,42.805,6.029,13.3011,4.60059,2470.646,2022-10-21T09:22:56Z
2022-10-21T07:24:04Z,42.805,6.029,13.3012,4.60053,2470.646,2022-10-21T09:25:59Z
2022-10-21T07:27:07Z,42.805,6.029,13.3012,4.60055,2470.661,2022-10-21T09:29:02Z
2022-10-21T07:30:10Z,42.805,6.029,13.3013,4.60054,2470.624,2022-10-21T09:32:05Z
2022-10-21T07:33:13Z,42.805,6.029,13.3011,4.60053,2470.707,2022-10-21T09:35:08Z
2022-10-21T07:36:16Z,42.805,6.029,13.3013,4.60052,2470.646,2022-10-21T09:38:12Z
2022-10-21T07:39:19Z,42.805,6.029,13.3012,4.60054,2470.684,2022-10-21T09:41:15Z
2022-10-21T07:42:22Z,42.805,6.029,13.3010,4.60054,2470.67,2022-10-21T09:44:18Z
2022-10-21T07:45:25Z,42.805,6.029,13.3014,4.60052,2470.646,2022-10-21T09:47:21Z
2022-10-21T07:48:28Z,42.805,6.029,13.3009,4.60055,2470.661,2022-10-21T09:50:24Z
2022-10-21T07:51:31Z,42.805,6.029,13.3015,4.60053,2470.646,2022-10-21T09:53:27Z
2022-10-21T07:54:34Z,42.805,6.029,13.3011,4.60053,2470.637,2022-10-21T09:56:30Z
2022-10-21T07:57:37Z,42.805,6.029,13.3010,4.60054,2470.646,2022-10-21T09:59:33Z
2022-10-21T08:00:40Z,42.805,6.029,13.3011,4.60053,2470.661,2022-10-21T10:02:36Z
2022-10-21T08:03:44Z,42.805,6.029,13.3012,4.60054,2470.646,2022-10-21T10:05:39Z
2022-10-21T08:06:47Z,42.805,6.029,13.3011,4.60055,2470.633,2022-10-21T10:08:42Z
2022-10-21T08:09:50Z,42.805,6.029,13.3015,4.60054,2470.646,2022-10-21T10:11:45Z
2022-10-21T08:12:53Z,42.805,6.029,13.3007,4.60054,2470.646,2022-10-21T10:14:49Z
2022-10-21T08:15:56Z,42.805,6.029,13.3014,4.60053,2470.624,2022-10-21T10:17:52Z
2022-10-21T08:18:59Z,42.805,6.029,13.3010,4.60054,2470.624,2022-10-21T10:20:55Z
2022-10-21T08:22:02Z,42.805,6.029,13.3009,4.60054,2470.624,2022-10-21T10:23:58Z
2022-10-21T08:25:05Z,42.805,6.029,13.3013,4.60053,2470.61,2022-10-21T10:27:01Z
2022-10-21T08:28:08Z,42.805,6.029,13.3014,4.60054,2470.624,2022-10-21T10:30:04Z
2022-10-21T08:31:11Z,42.805,6.029,13.3009,4.60054,2470.624,2022-10-21T10:33:07Z
2022-10-21T08:34:14Z,42.805,6.029,13.3015,4.60054,2470.624,2022-10-21T10:36:10Z
2022-10-21T08:37:17Z,42.805,6.029,13.3013,4.60054,2470.61,2022-10-21T10:39:13Z
2022-10-21T08:40:21Z,42.805,6.029,13.3017,4.60054,2470.614,2022-10-21T10:42:16Z
2022-10-21T08:43:24Z,42.805,6.029,13.3011,4.60055,2470.6,2022-10-21T10:45:19Z
2022-10-21T08:46:27Z,42.805,6.029,13.3007,4.60053,2470.6,2022-10-21T10:48:22Z
2022-10-21T08:49:30Z,42.805,6.029,13.3014,4.60055,2470.646,2022-10-21T10:51:26Z
2022-10-21T08:52:33Z,42.805,6.029,13.3010,4.60054,2470.6,2022-10-21T10:54:29Z
2022-10-21T08:55:36Z,42.805,6.029,13.3014,4.60054,2470.637,2022-10-21T10:57:32Z
2022-10-21T08:58:39Z,42.805,6.029,13.3012,4.60056,2470.624,2022-10-21T11:00:35Z
2022-10-21T09:01:42Z,42.805,6.029,13.3015,4.60053,2470.646,2022-10-21T11:03:38Z
2022-10-21T09:04:45Z,42.805,6.029,13.3012,4.60052,2470.624,2022-10-21T11:06:41Z
2022-10-21T09:07:48Z,42.805,6.029,13.3009,4.60053,2470.624,2022-10-21T11:09:44Z
2022-10-21T09:10:51Z,42.805,6.029,13.3013,4.60052,2470.624,2022-10-21T11:12:47Z
2022-10-21T09:13:54Z,42.805,6.029,13.3012,4.60056,2470.637,2022-10-21T11:15:50Z
2022-10-21T09:16:58Z,42.805,6.029,13.3015,4.60055,2470.6,2022-10-21T11:18:53Z
2022-10-21T09:20:01Z,42.805,6.029,13.3014,4.60053,2470.646,2022-10-21T11:21:56Z
2022-10-21T09:23:04Z,42.805,6.029,13.3012,4.60052,2470.6,2022-10-21T11:24:59Z
2022-10-21T09:26:07Z,42.805,6.029,13.3009,4.60053,2470.624,2022-10-21T11:28:03Z
2022-10-21T09:29:10Z,42.805,6.029,13.3013,4.60055,2470.6,2022-10-21T11:31:06Z
2022-10-21T09:32:13Z,42.805,6.029,13.3011,4.60053,2470.637,2022-10-21T11:34:09Z
2022-10-21T09:35:16Z,42.805,6.029,13.3011,4.60054,2470.637,2022-10-21T11:37:12Z
2022-10-21T09:38:19Z,42.805,6.029,13.3011,4.60054,2470.6,2022-10-21T11:40:15Z
2022-10-21T09:41:22Z,42.805,6.029,13.3011,4.60057,2470.6,2022-10-21T11:43:18Z
2022-10-21T09:44:25Z,42.805,6.029,13.3014,4.60054,2470.624,2022-10-21T11:46:21Z
2022-10-21T09:47:28Z,42.805,6.029,13.3010,4.60052,2470.637,2022-10-21T11:49:24Z
2022-10-21T09:50:31Z,42.805,6.029,13.3013,4.60060,2470.646,2022-10-21T11:52:27Z
2022-10-21T09:53:35Z,42.805,6.029,13.3015,4.60055,2470.6,2022-10-21T11:55:30Z
2022-10-21T09:56:38Z,42.805,6.029,13.3016,4.60054,2470.624,2022-10-21T11:58:33Z
2022-10-21T09:59:41Z,42.805,6.029,13.3013,4.60054,2470.614,2022-10-21T12:01:36Z
2022-10-21T10:02:44Z,42.805,6.029,13.3014,4.60055,2470.624,2022-10-21T12:04:39Z
2022-10-21T10:05:47Z,42.805,6.029,13.3012,4.60054,2470.6,2022-10-21T12:07:43Z
2022-10-21T10:08:50Z,42.805,6.029,13.3015,4.60055,2470.624,2022-10-21T12:10:46Z
2022-10-21T10:11:53Z,42.805,6.029,13.3013,4.60053,2470.624,2022-10-21T12:13:49Z
2022-10-21T10:14:56Z,42.805,6.029,13.3011,4.60054,2470.6,2022-10-21T12:16:52Z
2022-10-21T10:17:59Z,42.805,6.029,13.3013,4.60054,2470.624,2022-10-21T12:19:55Z
2022-10-21T10:21:02Z,42.805,6.029,13.3012,4.60054,2470.637,2022-10-21T12:22:58Z
2022-10-21T10:24:05Z,42.805,6.029,13.3011,4.60053,2470.624,2022-10-21T12:26:01Z
2022-10-21T10:27:08Z,42.805,6.029,13.3015,4.60057,2470.624,2022-10-21T12:29:04Z
2022-10-21T10:30:11Z,42.805,6.029,13.3011,4.60054,2470.6,2022-10-21T12:32:07Z
2022-10-21T10:33:15Z,42.805,6.029,13.3015,4.60055,2470.624,2022-10-21T12:35:10Z
2022-10-21T10:36:18Z,42.805,6.029,13.3014,4.60055,2470.6,2022-10-21T12:38:13Z
2022-10-21T10:39:21Z,42.805,6.029,13.3014,4.60054,2470.591,2022-10-21T12:41:16Z
2022-10-21T10:42:24Z,42.805,6.029,13.3015,4.60059,2470.577,2022-10-21T12:44:20Z
2022-10-21T10:45:27Z,42.805,6.029,13.3013,4.60057,2470.6,2022-10-21T12:47:23Z
2022-10-21T10:48:30Z,42.805,6.029,13.3010,4.60055,2470.577,2022-10-21T12:50:26Z
2022-10-21T10:51:33Z,42.805,6.029,13.3013,4.60053,2470.614,2022-10-21T12:53:29Z
2022-10-21T10:54:36Z,42.805,6.029,13.3014,4.60054,2470.624,2022-10-21T12:56:32Z
2022-10-21T10:57:39Z,42.805,6.029,13.3015,4.60053,2470.591,2022-10-21T12:59:35Z
2022-10-21T11:00:42Z,42.805,6.029,13.3014,4.60054,2470.577,2022-10-21T13:02:38Z
2022-10-21T11:03:45Z,42.805,6.029,13.3010,4.60055,2470.577,2022-10-21T13:05:41Z
2022-10-21T11:06:48Z,42.805,6.029,13.3014,4.60055,2470.6,2022-10-21T13:08:44Z
2022-10-21T11:09:52Z,42.805,6.029,13.3015,4.60054,2470.6,2022-10-21T13:11:47Z
2022-10-21T11:12:55Z,42.805,6.029,13.3017,4.60057,2470.591,2022-10-21T13:14:50Z
2022-10-21T11:15:58Z,42.805,6.029,13.3013,4.60054,2470.591,2022-10-21T13:17:53Z
2022-10-21T11:19:01Z,42.805,6.029,13.3009,4.60057,2470.577,2022-10-21T13:20:57Z
2022-10-21T11:22:04Z,42.805,6.029,13.3014,4.60055,2470.577,2022-10-21T13:24:00Z
2022-10-21T11:25:07Z,42.805,6.029,13.3013,4.60056,2470.614,2022-10-21T13:27:03Z
2022-10-21T11:28:10Z,42.805,6.029,13.3018,4.60057,2470.6,2022-10-21T13:30:06Z
2022-10-21T11:31:13Z,42.805,6.029,13.3017,4.60057,2470.646,2022-10-21T13:33:09Z
2022-10-21T11:34:16Z,42.805,6.029,13.3017,4.60058,2470.624,2022-10-21T13:36:12Z
2022-10-21T11:37:19Z,42.805,6.029,13.3014,4.60059,2470.614,2022-10-21T13:39:15Z
2022-10-21T11:40:22Z,42.805,6.029,13.3019,4.60059,2470.6,2022-10-21T13:42:18Z
2022-10-21T11:43:25Z,42.805,6.029,13.3016,4.60068,2470.624,2022-10-21T13:45:21Z
2022-10-21T11:46:29Z,42.805,6.029,13.3014,4.60061,2470.6,2022-10-21T13:48:24Z
2022-10-21T11:49:32Z,42.805,6.029,13.3017,4.60060,2470.624,2022-10-21T13:51:27Z
2022-10-21T11:52:35Z,42.805,6.029,13.3015,4.60061,2470.624,2022-10-21T13:54:30Z
2022-10-21T11:55:38Z,42.805,6.029,13.3018,4.60059,2470.624,2022-10-21T13:57:34Z
2022-10-21T11:58:41Z,42.805,6.029,13.3019,4.60059,2470.624,2022-10-21T14:00:37Z
2022-10-21T12:01:44Z,42.805,6.029,13.3019,4.60064,2470.624,2022-10-21T14:03:40Z
2022-10-21T12:04:47Z,42.805,6.029,13.3025,4.60096,2470.624,2022-10-21T14:06:43Z
2022-10-21T12:07:50Z,42.805,6.029,13.3019,4.60074,2470.6,2022-10-21T14:09:46Z
2022-10-21T12:10:53Z,42.805,6.029,13.3030,4.60070,2470.614,2022-10-21T14:12:49Z
2022-10-21T12:13:56Z,42.805,6.029,13.3024,4.60091,2470.624,2022-10-21T14:15:52Z
2022-10-21T12:16:59Z,42.805,6.029,13.3036,4.60082,2470.646,2022-10-21T14:18:55Z
2022-10-21T12:20:02Z,42.805,6.029,13.3040,4.60089,2470.637,2022-10-21T14:21:58Z
2022-10-21T12:23:06Z,42.805,6.029,13.3034,4.60145,2470.624,2022-10-21T14:25:01Z
2022-10-21T12:26:09Z,42.805,6.029,13.3033,4.60110,2470.6,2022-10-21T14:28:04Z
2022-10-21T12:29:12Z,42.805,6.029,13.3041,4.60119,2470.624,2022-10-21T14:31:07Z
2022-10-21T12:32:15Z,42.805,6.029,13.3043,4.60129,2470.624,2022-10-21T14:34:11Z
2022-10-21T12:35:18Z,42.805,6.029,13.3042,4.60129,2470.614,2022-10-21T14:37:14Z
2022-10-21T12:38:21Z,42.805,6.029,13.3034,4.60134,2470.637,2022-10-21T14:40:17Z
2022-10-21T12:41:24Z,42.805,6.029,13.3034,4.60142,2470.637,2022-10-21T14:43:20Z
2022-10-21T12:44:27Z,42.805,6.029,13.3036,4.60116,2470.624,2022-10-21T14:46:23Z
2022-10-21T12:47:30Z,42.805,6.029,13.3038,4.60138,2470.646,2022-10-21T14:49:26Z
2022-10-21T12:50:33Z,42.805,6.029,13.3031,4.60141,2470.637,2022-10-21T14:52:29Z
2022-10-21T12:53:36Z,42.805,6.029,13.3035,4.60125,2470.661,2022-10-21T14:55:32Z
2022-10-21T12:56:39Z,42.805,6.029,13.3022,4.60120,2470.624,2022-10-21T14:58:35Z
2022-10-21T12:59:43Z,42.805,6.029,13.3032,4.60108,2470.624,2022-10-21T15:01:38Z
2022-10-21T13:02:46Z,42.805,6.029,13.3027,4.60129,2470.646,2022-10-21T15:04:41Z
2022-10-21T13:05:49Z,42.805,6.029,13.3034,4.60115,2470.637,2022-10-21T15:07:44Z
2022-10-21T13:08:52Z,42.805,6.029,13.3048,4.60092,2470.6,2022-10-21T15:10:48Z
2022-10-21T13:11:55Z,42.805,6.029,13.3047,4.60102,2470.6,2022-10-21T15:13:51Z
2022-10-21T13:14:58Z,42.805,6.029,13.3051,4.60110,2470.646,2022-10-21T15:16:54Z
2022-10-21T13:18:01Z,42.805,6.029,13.3047,4.60104,2470.624,2022-10-21T15:19:57Z
2022-10-21T13:21:04Z,42.805,6.029,13.3048,4.60099,2470.624,2022-10-21T15:23:00Z
2022-10-21T13:24:07Z,42.805,6.029,13.3048,4.60099,2470.67,2022-10-21T15:26:03Z
2022-10-21T13:27:10Z,42.805,6.029,13.3056,4.60106,2470.684,2022-10-21T15:29:06Z
2022-10-21T13:30:13Z,42.805,6.029,13.3054,4.60077,2470.646,2022-10-21T15:32:09Z
2022-10-21T13:33:16Z,42.805,6.029,13.3056,4.60092,2470.646,2022-10-21T15:35:12Z
2022-10-21T13:36:20Z,42.805,6.029,13.3033,4.60086,2470.646,2022-10-21T15:38:15Z
2022-10-21T13:39:23Z,42.805,6.029,13.3030,4.60107,2470.661,2022-10-21T15:41:18Z
2022-10-21T13:42:26Z,42.805,6.029,13.3046,4.60104,2470.624,2022-10-21T15:44:21Z
2022-10-21T13:45:29Z,42.805,6.029,13.3020,4.60071,2470.67,2022-10-21T15:47:25Z
2022-10-21T13:48:32Z,42.805,6.029,13.3019,4.60060,2470.693,2022-10-21T15:50:28Z
2022-10-21T13:51:35Z,42.805,6.029,13.3049,4.60076,2470.684,2022-10-21T15:53:31Z
2022-10-21T13:54:38Z,42.805,6.029,13.3015,4.60067,2470.646,2022-10-21T15:56:34Z
2022-10-21T13:57:41Z,42.805,6.029,13.3019,4.60059,2470.693,2022-10-21T15:59:37Z
2022-10-21T14:00:44Z,42.805,6.029,13.3021,4.60064,2470.67,2022-10-21T16:02:40Z
2022-10-21T14:03:47Z,42.805,6.029,13.3009,4.60067,2470.73,2022-10-21T16:05:43Z
2022-10-21T14:06:50Z,42.805,6.029,13.3014,4.60064,2470.693,2022-10-21T16:08:46Z
2022-10-21T14:09:53Z,42.805,6.029,13.3013,4.60060,2470.67,2022-10-21T16:11:49Z
2022-10-21T14:12:57Z,42.805,6.029,13.3014,4.60062,2470.67,2022-10-21T16:14:52Z
2022-10-21T14:16:00Z,42.805,6.029,13.3011,4.60062,2470.717,2022-10-21T16:17:55Z
2022-10-21T14:19:03Z,42.805,6.029,13.3015,4.60063,2470.73,2022-10-21T16:20:58Z
2022-10-21T14:22:06Z,42.805,6.029,13.3011,4.60057,2470.717,2022-10-21T16:24:02Z
2022-10-21T14:25:09Z,42.805,6.029,13.3015,4.60059,2470.74,2022-10-21T16:27:05Z
2022-10-21T14:28:12Z,42.805,6.029,13.3014,4.60063,2470.693,2022-10-21T16:30:08Z
2022-10-21T14:31:15Z,42.805,6.029,13.3011,4.60058,2470.717,2022-10-21T16:33:11Z
2022-10-21T14:34:18Z,42.805,6.029,13.3014,4.60058,2470.717,2022-10-21T16:36:14Z
2022-10-21T14:37:21Z,42.805,6.029,13.3015,4.60062,2470.693,2022-10-21T16:39:17Z
2022-10-21T14:40:24Z,42.805,6.029,13.3011,4.60057,2470.717,2022-10-21T16:42:20Z
2022-10-21T14:43:27Z,42.805,6.029,13.3014,4.60058,2470.754,2022-10-21T16:45:23Z
2022-10-21T14:46:30Z,42.805,6.029,13.3014,4.60059,2470.73,2022-10-21T16:48:26Z
2022-10-21T14:49:34Z,42.805,6.029,13.3015,4.60058,2470.74,2022-10-21T16:51:29Z
2022-10-21T14:52:37Z,42.805,6.029,13.3012,4.60059,2470.73,2022-10-21T16:54:32Z
2022-10-21T14:55:40Z,42.805,6.029,13.3011,4.60057,2470.717,2022-10-21T16:57:35Z
2022-10-21T14:58:43Z,42.805,6.029,13.3015,4.60059,2470.717,2022-10-21T17:00:39Z
2022-10-21T15:01:46Z,42.805,6.029,13.3014,4.60059,2470.74,2022-10-21T17:03:42Z